FW5640 Weather Reports


time (UTC)temp
F
wind
direction
speed
knots
gust
knots
rain 1hr
in
rain 24hr
in
rain mn
in
humidity
%
barometer
mb
20260906121850 80 274 1.7 2.6 0.00 0.00 0.00 91 1012.3
20260906121345 80 175 0.9 0.9 0.00 0.00 0.00 91 1012.4
20260906120841 80 219 1.7 1.7 0.00 0.00 0.00 91 1012.4
20260906120337 80 189 0.9 0.9 0.00 0.00 0.00 91 1012.2
20260906115833 79 229 4.3 6.1 0.00 0.00 0.00 91 1012.4
20260906115328 79 296 3.5 4.3 0.00 0.00 0.00 91 1012.3
20260906114827 79 274 0.9 0.9 0.00 0.00 0.00 91 1012.7
20260906114323 79 185 0.9 1.7 0.00 0.00 0.00 91 1012.6
20260906113818 79 211 1.7 2.6 0.00 0.00 0.00 91 1012.6
20260906113317 79 221 1.7 1.7 0.00 0.00 0.00 91 1012.5
20260906112813 79 198 1.7 1.7 0.00 0.00 0.00 91 1012.8
20260906112309 79 244 0.9 0.9 0.00 0.00 0.00 91 1012.7
20260906111809 79 284 0.9 0.9 0.00 0.00 0.00 91 1012.6
20260906111308 79 134 0.9 1.7 0.00 0.00 0.00 91 1012.6
20260906110803 79 177 0.9 0.9 0.00 0.00 0.00 91 1012.4
20260906110259 79 188 0.9 0.9 0.00 0.00 0.00 90 1012.0
20260906105758 79 171 0.9 0.9 0.00 0.00 0.00 90 1012.0
20260906105254 79 239 0.9 0.9 0.00 0.00 0.00 90 1011.6
20260906104749 79 223 0.9 1.7 0.00 0.00 0.00 90 1011.7
20260906104247 79 262 2.6 2.6 0.00 0.00 0.00 90 1011.6
20260906103746 79 185 0.9 0.9 0.00 0.00 0.00 90 1011.6
20260906103246 79 299 0.9 0.9 0.00 0.00 0.00 90 1011.4
20260906102742 79 187 1.7 1.7 0.00 0.00 0.00 90 1011.4
20260906102240 79 179 0.9 0.9 0.00 0.00 0.00 90 1011.4
20260906101736 80 241 1.7 1.7 0.00 0.00 0.00 89 1011.5
20260906101231 80 230 1.7 1.7 0.00 0.00 0.00 90 1011.5
20260906100726 80 201 1.7 1.7 0.00 0.00 0.00 90 1011.4
20260906100226 80 241 2.6 2.6 0.00 0.00 0.00 90 1011.6
20260906095721 80 225 0.9 0.9 0.00 0.00 0.00 90 1011.5
20260906095216 80 180 0.9 0.9 0.00 0.00 0.00 90 1011.3
20260906094714 80 217 1.7 1.7 0.00 0.00 0.00 90 1011.4
20260906094210 80 209 0.9 0.9 0.00 0.00 0.00 90 1011.5
20260906093707 80 291 0.9 1.7 0.00 0.00 0.00 89 1011.6
20260906093202 80 219 0.9 0.9 0.00 0.00 0.00 89 1011.3
20260906092657 80 207 0.0 0.0 0.00 0.00 0.00 89 1011.4
20260906092156 80 183 1.7 1.7 0.00 0.00 0.00 89 1011.4
20260906091653 80 206 0.9 0.9 0.00 0.00 0.00 89 1011.2
20260906091149 80 227 2.6 2.6 0.00 0.00 0.00 89 1011.2
20260906090645 80 324 1.7 1.7 0.00 0.00 0.00 89 1011.0
20260906090144 80 307 1.7 2.6 0.00 0.00 0.00 89 1011.0
20260906085643 80 301 4.3 5.2 0.00 0.00 0.00 89 1010.8
20260906085138 80 194 1.7 1.7 0.00 0.00 0.00 89 1011.3
20260906084638 80 324 1.7 1.7 0.00 0.00 0.00 89 1011.1
20260906084137 80 194 1.7 1.7 0.00 0.00 0.00 89 1011.2
20260906083632 80 177 0.9 0.9 0.00 0.00 0.00 89 1011.2
20260906083127 80 112 0.9 0.9 0.00 0.00 0.00 89 1011.1
20260906082623 80 220 0.9 0.9 0.00 0.00 0.00 89 1011.2
20260906082118 80 224 1.7 1.7 0.00 0.00 0.00 89 1011.1
20260906081614 80 358 4.3 6.1 0.00 0.00 0.00 89 1011.3
20260906081108 80 162 0.9 0.9 0.00 0.00 0.00 89 1011.4
20260906080606 80 284 1.7 1.7 0.00 0.00 0.00 89 1011.2
20260906075555 80 222 0.9 0.9 0.00 0.00 0.00 88 1011.2
20260906075050 81 169 1.7 1.7 0.00 0.00 0.00 88 1011.4
20260906074544 81 234 2.6 5.2 0.00 0.00 0.00 88 1011.2
20260906074042 81 157 1.7 1.7 0.00 0.00 0.00 88 1011.3
20260906073538 81 181 1.7 1.7 0.00 0.00 0.00 88 1011.4
20260906073029 81 218 0.9 0.9 0.00 0.00 0.00 89 1011.4
20260906072523 81 217 1.7 1.7 0.00 0.00 0.00 89 1011.5
20260906072020 81 184 0.9 0.9 0.00 0.00 0.00 89 1011.4
20260906071515 81 205 3.5 4.3 0.00 0.00 0.00 89 1011.2
20260906071010 81 237 1.7 2.6 0.00 0.00 0.00 89 1011.2
20260906070506 81 236 1.7 1.7 0.00 0.00 0.00 89 1011.2
20260906070002 81 33 0.9 0.9 0.00 0.00 0.00 89 1011.4
20260906065455 81 207 2.6 2.6 0.00 0.00 0.00 89 1011.1
20260906064951 81 124 0.9 1.7 0.00 0.00 0.00 89 1011.3
20260906064447 81 334 1.7 2.6 0.00 0.00 0.00 89 1011.3
20260906063942 81 198 1.7 2.6 0.00 0.00 0.00 89 1011.6
20260906063437 81 255 1.7 2.6 0.00 0.00 0.00 89 1011.5
20260906062932 80 280 2.6 2.6 0.00 0.00 0.00 89 1011.7
20260906062427 80 235 2.6 2.6 0.00 0.00 0.00 89 1011.3
20260906061922 81 217 0.9 1.7 0.00 0.00 0.00 89 1011.6
20260906061418 81 96 0.9 0.9 0.00 0.00 0.00 89 1011.7
20260906060912 81 225 3.5 5.2 0.00 0.00 0.00 89 1011.6
20260906060410 81 214 0.9 0.9 0.00 0.00 0.00 89 1011.8
20260906055906 81 228 3.5 5.2 0.00 0.00 0.00 89 1011.7
20260906055401 81 209 0.9 0.9 0.00 0.00 0.00 89 1011.7
20260906054856 81 188 2.6 4.3 0.00 0.00 0.00 89 1011.7
20260906054351 81 110 0.9 0.9 0.00 0.00 0.00 89 1011.8
20260906053847 81 206 1.7 1.7 0.00 0.00 0.00 89 1011.9
20260906053343 81 206 0.9 0.9 0.00 0.00 0.00 89 1012.1
20260906052838 81 263 0.9 1.7 0.00 0.00 0.00 89 1012.0
20260906052334 81 226 1.7 1.7 0.00 0.00 0.00 90 1012.2
20260906051831 81 204 1.7 1.7 0.00 0.00 0.00 90 1012.0
20260906051330 81 258 1.7 1.7 0.00 0.00 0.00 90 1012.1
20260906050826 81 240 2.6 2.6 0.00 0.00 0.00 90 1012.0
20260906050321 81 179 2.6 4.3 0.00 0.00 0.00 90 1012.0
20260906045820 81 191 0.9 0.9 0.00 0.00 0.00 90 1011.8
20260906045314 81 166 0.9 0.9 0.00 0.00 0.00 89 1012.1
20260906044811 81 250 2.6 2.6 0.00 0.00 0.00 89 1012.1
20260906044305 81 232 1.7 2.6 0.00 0.00 0.00 89 1012.0
20260906043801 81 187 0.9 0.9 0.00 0.00 0.00 89 1012.0
20260906043257 81 202 1.7 1.7 0.00 0.00 0.00 89 1012.0
20260906042757 81 358 1.7 1.7 0.00 0.00 0.00 89 1012.0
20260906042256 81 240 4.3 5.2 0.00 0.00 0.00 89 1012.1
20260906041752 81 226 2.6 4.3 0.00 0.00 0.00 89 1012.2
20260906041247 81 221 3.5 4.3 0.00 0.00 0.00 89 1012.0
20260906040742 81 202 0.9 1.7 0.00 0.00 0.00 89 1012.3
20260906040237 81 199 2.6 4.3 0.00 0.00 0.00 88 1012.2
20260906035732 81 225 2.6 2.6 0.00 0.00 0.00 88 1012.4
20260906035228 81 245 2.6 2.6 0.00 0.00 0.00 88 1012.3
20260906034728 81 149 1.7 1.7 0.00 0.00 0.00 88 1012.6
20260906034223 81 229 1.7 0.9 0.00 0.00 0.00 88 1012.4
20260906033718 81 219 1.7 1.7 0.00 0.00 0.00 87 1012.5
20260906033212 81 196 0.9 0.9 0.00 0.00 0.00 87 1012.7
20260906032710 81 198 2.6 2.6 0.00 0.00 0.00 87 1012.6
20260906032209 81 183 0.9 0.9 0.00 0.00 0.00 87 1013.0
20260906031704 81 177 1.7 2.6 0.00 0.00 0.00 86 1012.7
20260906031200 81 193 0.9 0.9 0.00 0.00 0.00 86 1012.7
20260906030700 81 200 1.7 1.7 0.00 0.00 0.00 86 1012.9
20260906030155 81 223 1.7 1.7 0.00 0.00 0.00 86 1012.8
20260906025654 81 163 1.7 1.7 0.00 0.00 0.00 85 1012.9
20260906025154 82 181 0.9 0.9 0.00 0.00 0.00 85 1012.9
20260906024648 82 213 0.9 1.7 0.00 0.00 0.00 85 1013.0
20260906024147 82 186 1.7 1.7 0.00 0.00 0.00 84 1012.9
20260906023644 82 178 0.9 0.9 0.00 0.00 0.00 84 1013.0
20260906023144 82 167 0.9 0.9 0.00 0.00 0.00 84 1012.9
20260906022638 82 197 2.6 2.6 0.00 0.00 0.00 84 1012.9
20260906022134 82 186 0.9 0.9 0.00 0.00 0.00 83 1012.8
20260906021630 83 161 0.9 0.9 0.00 0.00 0.00 83 1012.8
20260906021128 83 173 1.7 2.6 0.00 0.00 0.00 83 1012.7
20260906020623 83 156 1.7 2.6 0.00 0.00 0.00 83 1012.7
20260906020118 83 190 3.5 4.3 0.00 0.00 0.00 82 1012.7
20260906015612 83 152 0.9 0.9 0.00 0.00 0.00 82 1012.6
20260906015111 83 186 4.3 5.2 0.00 0.00 0.00 83 1012.4
20260906014606 84 203 3.5 5.2 0.00 0.00 0.00 83 1012.5
20260906014102 84 167 4.3 4.3 0.00 0.00 0.00 83 1012.5
20260906013557 84 171 2.6 2.6 0.00 0.00 0.00 83 1012.6
20260906013052 84 199 4.3 4.3 0.00 0.00 0.00 83 1012.5
20260906012548 83 177 3.5 4.3 0.00 0.00 0.00 84 1012.4
20260906012047 84 165 4.3 6.1 0.00 0.00 0.00 84 1012.4
20260906011543 84 148 6.1 7.8 0.00 0.00 0.00 84 1012.3
20260906011043 84 195 7.0 7.0 0.00 0.00 0.00 84 1012.0
20260906010538 83 194 5.2 6.1 0.00 0.00 0.00 84 1012.0
20260906010035 83 173 5.2 7.0 0.00 0.00 0.00 84 1012.0
20260906005534 83 168 7.0 7.8 0.00 0.00 0.00 85 1011.9
20260906005033 83 159 6.1 7.8 0.00 0.00 0.00 85 1011.7
20260906004532 83 170 5.2 7.0 0.00 0.00 0.00 85 1011.9
20260906004027 83 192 5.2 6.1 0.00 0.00 0.00 85 1011.6
20260906003522 83 200 7.0 8.7 0.00 0.00 0.00 85 1011.6
20260906003019 83 177 6.1 7.0 0.00 0.00 0.00 85 1011.7
20260906002513 83 170 4.3 6.1 0.00 0.00 0.00 85 1011.7
20260906002008 83 182 6.1 6.1 0.00 0.00 0.00 85 1011.6
20260906001504 83 178 6.1 6.1 0.00 0.00 0.00 85 1011.4
20260906000958 83 150 4.3 5.2 0.00 0.00 0.00 85 1011.4
20260906000455 83 168 4.3 4.3 0.00 0.00 0.00 85 1011.4
20260905235954 83 180 6.1 7.0 0.00 0.00 0.00 85 1011.6
20260905235448 83 168 3.5 6.1 0.00 0.00 0.00 85 1011.4
20260905234943 83 203 6.1 7.0 0.00 0.00 0.00 85 1011.3
20260905234438 84 192 4.3 5.2 0.00 0.00 0.00 84 1011.4
20260905233932 84 152 6.1 7.0 0.00 0.00 0.00 83 1011.5
20260905233428 84 179 7.0 8.7 0.00 0.00 0.00 83 1011.5
20260905232927 84 206 7.8 11.3 0.00 0.00 0.00 83 1011.6
20260905232423 84 178 6.1 7.0 0.00 0.00 0.00 83 1011.3
20260905231918 84 203 7.0 8.7 0.00 0.00 0.00 82 1011.3
20260905231414 84 187 4.3 7.0 0.00 0.00 0.00 82 1011.5
20260905230911 84 182 3.5 4.3 0.00 0.00 0.00 82 1011.6
20260905230409 84 158 8.7 9.6 0.00 0.00 0.00 82 1011.4
20260905225907 84 187 6.1 7.8 0.00 0.00 0.00 82 1011.6
20260905225403 85 190 7.8 9.6 0.00 0.00 0.00 82 1011.7
20260905224857 84 185 7.8 8.7 0.00 0.00 0.00 82 1011.9
20260905224353 85 182 7.0 8.7 0.00 0.00 0.00 82 1011.8
20260905223847 85 175 6.1 8.7 0.00 0.00 0.00 82 1011.8
20260905223345 86 173 2.6 4.3 0.00 0.00 0.00 82 1011.9
20260905222840 85 84 3.5 4.3 0.00 0.00 0.00 83 1012.2
20260905222338 85 173 6.1 7.8 0.00 0.00 0.00 82 1012.0
20260905221835 85 183 6.1 7.8 0.00 0.00 0.00 82 1011.9
20260905221332 85 136 7.8 8.7 0.00 0.00 0.00 82 1011.9
20260905220827 86 188 6.1 7.0 0.00 0.00 0.00 82 1011.9
20260905220323 86 150 6.1 7.8 0.00 0.00 0.00 81 1012.0
20260905215822 86 192 7.8 7.8 0.00 0.00 0.00 81 1012.2
20260905215318 86 168 6.1 7.0 0.00 0.00 0.00 81 1012.2
20260905214814 86 177 7.0 7.8 0.00 0.00 0.00 82 1012.1
20260905214309 86 164 7.8 8.7 0.00 0.00 0.00 82 1012.2
20260905213804 86 167 5.2 7.8 0.00 0.00 0.00 83 1012.3
20260905213301 85 142 8.7 12.2 0.00 0.00 0.00 84 1012.4
20260905212755 86 179 7.8 8.7 0.00 0.00 0.00 84 1012.4
20260905212254 86 173 7.0 7.0 0.00 0.00 0.00 83 1012.4
20260905211749 86 177 6.1 7.0 0.00 0.00 0.00 84 1012.3
20260905211244 86 178 7.8 8.7 0.00 0.00 0.00 84 1012.2
20260905210742 86 206 6.1 7.8 0.00 0.00 0.00 83 1012.2
20260905210240 86 166 7.0 7.8 0.00 0.00 0.00 83 1012.1
20260905205739 86 200 5.2 7.0 0.00 0.00 0.00 83 1012.1
20260905205234 86 147 5.2 7.0 0.00 0.00 0.00 82 1012.2
20260905204734 86 92 2.6 4.3 0.00 0.00 0.00 83 1012.3
20260905204230 86 133 6.1 6.1 0.00 0.00 0.00 82 1012.0
20260905203729 86 185 4.3 6.1 0.00 0.00 0.00 82 1012.1
20260905203225 87 180 7.0 9.6 0.00 0.00 0.00 81 1011.9
20260905202720 86 132 5.2 7.8 0.00 0.00 0.00 83 1012.1
20260905202215 86 116 6.1 7.8 0.00 0.00 0.00 83 1011.9
20260905201710 85 113 5.2 5.2 0.00 0.00 0.00 83 1012.0
20260905201205 85 118 5.2 6.1 0.00 0.00 0.00 83 1012.0
20260905200700 86 116 4.3 5.2 0.00 0.00 0.00 82 1011.9
20260905200155 86 96 4.3 6.1 0.00 0.00 0.00 81 1012.1
20260905195654 86 103 2.6 2.6 0.00 0.00 0.00 82 1012.0
20260905195149 86 177 4.3 5.2 0.00 0.00 0.00 81 1012.0
20260905194644 86 128 4.3 5.2 0.00 0.00 0.00 81 1011.9
20260905194144 86 142 6.1 6.1 0.00 0.00 0.00 81 1012.2
20260905193638 86 170 4.3 5.2 0.00 0.00 0.00 80 1012.1
20260905193133 87 122 6.1 7.0 0.00 0.00 0.00 79 1012.4
20260905192628 87 182 2.6 4.3 0.00 0.00 0.00 79 1012.4
20260905192125 87 126 4.3 5.2 0.00 0.00 0.00 78 1012.7
20260905191624 87 139 3.5 5.2 0.00 0.00 0.00 77 1012.6
20260905191122 88 80 4.3 6.1 0.00 0.00 0.00 75 1012.5
20260905190621 89 108 2.6 2.6 0.00 0.00 0.00 75 1012.5
20260905190121 89 132 3.5 4.3 0.00 0.00 0.00 74 1012.4
20260905185619 88 118 1.7 1.7 0.00 0.00 0.00 75 1012.5
20260905185114 89 122 2.6 2.6 0.00 0.00 0.00 74 1012.6
20260905184609 90 129 3.5 4.3 0.00 0.00 0.00 72 1012.6
20260905184108 92 47 2.6 2.6 0.00 0.00 0.00 66 1012.5
20260905183607 93 313 2.6 2.6 0.00 0.00 0.00 65 1012.6
20260905183102 92 299 2.6 2.6 0.00 0.00 0.00 66 1012.8
20260905182602 90 252 1.7 1.7 0.00 0.00 0.00 68 1012.9
20260905182057 89 278 3.5 4.3 0.00 0.00 0.00 69 1012.9
20260905181557 90 243 2.6 4.3 0.00 0.00 0.00 68 1013.2
20260905181056 91 307 2.6 4.3 0.00 0.00 0.00 68 1013.1
20260905180551 90 304 1.7 2.6 0.00 0.00 0.00 69 1012.9
20260905180046 89 181 1.7 1.7 0.00 0.00 0.00 70 1013.3
20260905175545 89 302 2.6 2.6 0.00 0.00 0.00 71 1013.2
20260905175041 89 297 4.3 4.3 0.00 0.00 0.00 71 1013.3
20260905174536 90 289 4.3 5.2 0.00 0.00 0.00 70 1013.4
20260905174032 90 313 3.5 4.3 0.00 0.00 0.00 71 1013.4
20260905173528 89 344 3.5 4.3 0.00 0.00 0.00 70 1013.6
20260905173023 90 322 4.3 6.1 0.00 0.00 0.00 70 1013.9
20260905172521 89 72 0.9 0.9 0.00 0.00 0.00 72 1013.8
20260905172017 89 277 2.6 2.6 0.00 0.00 0.00 72 1013.8
20260905171514 89 203 1.7 2.6 0.00 0.00 0.00 73 1014.0
20260905171009 89 341 5.2 7.0 0.00 0.00 0.00 73 1014.1
20260905170506 89 278 2.6 1.7 0.00 0.00 0.00 74 1013.8
20260905170000 88 277 3.5 4.3 0.00 0.00 0.00 75 1013.7
20260905165455 88 291 4.3 4.3 0.00 0.00 0.00 75 1014.1
20260905164949 87 203 2.6 1.7 0.00 0.00 0.00 77 1014.3
20260905164444 87 291 3.5 5.2 0.00 0.00 0.00 78 1014.4
20260905163938 88 286 1.7 2.6 0.00 0.00 0.00 78 1014.6
20260905163435 87 216 2.6 4.3 0.00 0.00 0.00 79 1014.9
20260905162931 87 304 3.5 4.3 0.00 0.00 0.00 81 1014.7
20260905162426 87 263 5.2 6.1 0.00 0.00 0.00 82 1015.0
20260905161921 86 277 3.5 5.2 0.00 0.00 0.00 84 1014.8
20260905161420 86 272 1.7 1.7 0.00 0.00 0.00 85 1014.9
20260905160918 86 286 3.5 6.1 0.00 0.00 0.00 86 1015.0
20260905160412 85 271 2.6 1.7 0.00 0.00 0.00 87 1015.2
20260905155906 84 353 2.6 4.3 0.00 0.00 0.00 88 1015.1
20260905155401 84 303 1.7 1.7 0.00 0.00 0.00 89 1015.3
20260905154859 83 288 1.7 1.7 0.00 0.00 0.00 90 1015.3
20260905154355 83 255 3.5 4.3 0.00 0.00 0.00 89 1015.5
20260905153850 83 277 1.7 0.9 0.00 0.00 0.00 89 1015.5
20260905153347 84 284 7.0 9.6 0.00 0.00 0.00 89 1015.5
20260905152847 84 277 1.7 2.6 0.00 0.00 0.00 90 1015.2
20260905152346 84 296 3.5 4.3 0.00 0.00 0.00 90 1015.3
20260905151841 83 244 0.9 1.7 0.00 0.00 0.00 91 1015.6
20260905151337 83 211 0.9 0.9 0.00 0.00 0.00 90 1015.5
20260905150836 84 312 4.3 5.2 0.00 0.00 0.00 89 1015.3
20260905150331 84 214 0.9 0.9 0.00 0.00 0.00 91 1015.4
20260905145829 83 253 0.9 0.9 0.00 0.00 0.00 92 1015.2
20260905145328 83 259 0.9 0.9 0.00 0.00 0.00 92 1015.5
20260905144828 84 243 2.6 2.6 0.00 0.00 0.00 92 1015.3
20260905144323 84 265 4.3 5.2 0.00 0.00 0.00 92 1015.4
20260905143822 83 297 0.0 0.0 0.00 0.00 0.00 93 1015.4
20260905143316 83 237 1.7 1.7 0.00 0.00 0.00 93 1015.3
20260905142815 82 205 0.9 0.9 0.00 0.00 0.00 93 1015.2
20260905142309 82 273 3.5 4.3 0.00 0.00 0.00 93 1015.2
20260905141806 82 309 3.5 4.3 0.00 0.00 0.00 94 1015.2
20260905141301 82 247 0.9 1.7 0.00 0.00 0.00 94 1015.3
20260905140757 81 239 1.7 1.7 0.00 0.00 0.00 95 1015.6
20260905140256 81 195 2.6 2.6 0.00 0.00 0.00 95 1015.5
20260905135755 81 179 1.7 1.7 0.00 0.00 0.00 95 1015.4
20260905135252 81 186 0.9 0.9 0.00 0.00 0.00 95 1015.5
20260905134752 80 265 2.6 1.7 0.00 0.00 0.00 96 1015.4
20260905134251 80 205 0.9 0.9 0.00 0.00 0.00 96 1015.4
20260905133745 80 125 0.9 0.9 0.00 0.00 0.00 96 1015.3
20260905133241 80 197 1.7 0.9 0.00 0.00 0.00 96 1015.5
20260905132740 79 314 2.6 4.3 0.00 0.00 0.00 96 1015.5
20260905132236 79 170 0.9 0.9 0.00 0.00 0.00 96 1015.0
20260905131730 79 204 2.6 4.3 0.00 0.00 0.00 96 1015.1
20260905131226 79 233 1.7 1.7 0.00 0.00 0.00 96 1015.1
20260905130720 79 193 2.6 4.3 0.00 0.00 0.00 96 1015.2
20260905130219 79 193 0.9 0.9 0.00 0.00 0.00 97 1015.1
20260905125715 79 199 0.9 0.9 0.00 0.00 0.00 97 1015.3
20260905125209 79 173 1.7 1.7 0.00 0.00 0.00 96 1015.2
20260905124706 78 199 0.9 1.7 0.00 0.00 0.00 97 1015.2
20260905124202 78 175 0.9 0.9 0.00 0.00 0.00 97 1015.3
20260905123656 78 170 0.0 0.0 0.00 0.00 0.00 97 1015.1
20260905123154 78 25 0.9 0.9 0.00 0.00 0.00 97 1015.1
20260905122653 78 183 0.9 0.9 0.00 0.00 0.00 97 1015.1